Location: Milano
(45.4670°N, 9.2000°E)
Time: 20:53:17
(UTC+02:00)

ISS - Pass Details

Date: 16 May 2021
Orbit: 417 x 422 km, 51.6° (Epoch: 14 June)

Event Time Altitude Azimuth Distance (km) Brightness Sun altitude
Rises 01:14:10 0° 287° (WNW) 2,368 0.3 -25.4°
Reaches altitude 10° 01:16:28 10° 300° (WNW) 1,505 -0.6 -25.4°
Maximum altitude 01:19:25 27° 1° (N) 843 -1.6 -25.4°
Drops below altitude 10° 01:22:23 10° 62° (ENE) 1,508 -0.6 -25.4°
Sets 01:24:41 0° 74° (ENE) 2,373 0.3 -25.4°
